CW1172 Weather Reports


Display with metric or nautical units.
time (UTC)temp
F
wind
direction
speed
MPH
gust
MPH
rain 1hr
in
rain 24hr
in
rain mn
in
humidity
%
barometer
mb
20260905201507 51 263 0.0 0.0 0.00 0.00 0.27 91 1007.7
20260905200004 51 263 0.0 0.0 0.00 0.00 0.27 91 1007.5
20260905194605 52 264 0.0 0.0 0.00 0.00 0.27 90 1007.1
20260905193005 52 265 0.0 0.0 0.00 0.00 0.27 90 1007.0
20260905191501 53 264 0.0 0.0 0.00 0.00 0.27 90 1006.6
20260905190100 53 264 0.0 0.0 0.00 0.00 0.27 89 1006.4
20260905184601 54 265 0.0 0.0 0.00 0.00 0.27 89 1005.9
20260905183059 55 360 0.0 0.0 0.00 0.00 0.27 89 1005.8
20260905181608 56 264 0.0 0.0 0.00 0.00 0.27 88 1005.5
20260905180052 56 263 0.0 0.0 0.00 0.00 0.27 88 1005.1
20260905174553 57 264 0.0 0.0 0.00 0.00 0.26 88 1004.5
20260905173047 57 360 0.0 0.0 0.00 0.00 0.26 88 1004.4
20260905171546 57 265 0.0 0.0 0.00 0.00 0.26 88 1004.0
20260905170044 57 264 0.0 0.0 0.00 0.00 0.26 87 1003.8
20260905164543 57 265 0.0 0.0 0.00 0.00 0.26 86 1003.5
20260905163044 58 360 0.0 0.0 0.00 0.00 0.26 86 1003.4
20260905161542 57 360 0.0 0.0 0.00 0.00 0.26 87 1003.2
20260905160108 56 360 0.0 0.0 0.00 0.00 0.26 86 1002.9
20260905154542 57 334 0.0 0.0 0.00 0.00 0.25 82 1002.7
20260905153037 58 334 0.0 0.0 0.00 0.00 0.24 80 1002.6
20260905151537 60 336 0.0 0.0 0.00 0.00 0.23 81 1002.3
20260905150035 61 218 0.0 0.0 0.00 0.00 0.23 80 1002.2
20260905144534 63 360 0.0 0.0 0.00 0.00 0.22 76 1001.9
20260905143036 63 215 0.0 0.0 0.00 0.00 0.22 75 1002.0
20260905141540 62 302 0.0 0.0 0.00 0.00 0.22 77 1001.8
20260905140036 64 21 0.0 0.0 0.00 0.00 0.22 73 1001.7
20260905134536 64 233 0.0 0.0 0.00 0.00 0.22 73 1001.5
20260905133034 64 237 0.0 0.0 0.00 0.00 0.22 72 1001.4
20260905131532 64 284 0.0 0.0 0.00 0.00 0.22 70 1001.4
20260905130031 63 130 0.0 0.0 0.00 0.00 0.22 73 1001.4
20260905124538 63 233 0.0 0.0 0.00 0.00 0.22 75 1001.1
20260905123027 64 226 0.0 0.0 0.00 0.00 0.22 72 1001.1
20260905121527 63 254 0.0 0.0 0.00 0.00 0.22 75 1001.0
20260905120027 65 248 0.0 0.0 0.00 0.00 0.22 73 1001.0
20260905114527 64 254 0.0 0.0 0.00 0.00 0.22 73 1000.9
20260905113026 65 241 0.0 0.0 0.00 0.00 0.22 73 1000.7
20260905111522 64 242 0.0 0.0 0.00 0.00 0.22 74 1000.8
20260905110021 63 254 0.0 0.0 0.00 0.00 0.22 75 1000.5
20260905104518 61 221 0.0 0.0 0.00 0.00 0.22 77 1000.4
20260905103024 60 294 0.0 0.0 0.00 0.00 0.22 78 1000.4
20260905101517 60 261 0.0 0.0 0.00 0.00 0.22 78 1000.2
20260905100014 61 234 0.0 0.0 0.00 0.00 0.22 80 1000.1
20260905094514 61 264 0.0 0.0 0.00 0.00 0.22 80 1000.1
20260905093014 61 251 0.0 0.0 0.00 0.00 0.22 80 1000.1
20260905091529 60 360 0.0 0.0 0.00 0.00 0.22 83 999.9
20260905090008 60 216 0.0 0.0 0.00 0.00 0.22 87 999.8
20260905084505 58 360 0.0 0.0 0.00 0.00 0.22 89 999.6
20260905083005 57 248 0.0 0.0 0.00 0.00 0.22 89 999.5
20260905081505 58 318 0.0 0.0 0.00 0.00 0.22 92 999.5
20260905080002 57 360 0.0 0.0 0.00 0.00 0.22 92 999.3
20260905074601 57 214 0.0 0.0 0.00 0.00 0.22 93 999.1
20260905073103 57 273 0.0 0.0 0.00 0.00 0.22 93 999.0
20260905071557 57 233 0.0 0.0 0.00 0.00 0.22 93 998.8
20260905070100 56 235 0.0 0.0 0.00 0.00 0.22 94 998.8
20260905064554 56 224 0.0 0.0 0.00 0.00 0.22 93 998.7
20260905063057 55 231 0.0 0.0 0.00 0.00 0.22 93 998.5
20260905061618 56 208 0.0 0.0 0.00 0.00 0.22 94 998.3
20260905060059 54 209 0.0 0.0 0.00 0.00 0.22 94 998.1
20260905054550 54 227 0.0 0.0 0.00 0.00 0.22 94 998.0
20260905053054 53 248 0.0 0.0 0.00 0.00 0.22 94 997.9
20260905051551 53 192 0.0 0.0 0.00 0.00 0.22 94 997.8
20260905050051 52 192 0.0 0.0 0.00 0.00 0.22 93 997.8
20260905044551 51 192 0.0 0.0 0.00 0.00 0.22 93 997.7
20260905043047 51 190 0.0 0.0 0.00 0.00 0.22 93 997.7
20260905041552 52 192 0.0 0.0 0.00 0.00 0.22 93 997.8
20260905040044 52 192 0.0 0.0 0.00 0.00 0.22 93 997.8
20260905034552 53 192 0.0 0.0 0.00 0.00 0.22 93 997.7
20260905033043 53 193 0.0 0.0 0.00 0.00 0.22 93 997.7
20260905031541 53 178 0.0 0.0 0.00 0.00 0.20 93 997.5
20260905030041 53 215 0.0 0.0 0.00 0.00 0.20 93 997.4
20260905024540 53 215 0.0 0.0 0.00 0.00 0.20 93 997.4
20260905023041 53 215 0.0 0.0 0.00 0.00 0.20 93 997.5
20260905021541 53 215 0.0 0.0 0.00 0.00 0.20 93 997.3
20260905020041 53 215 0.0 0.0 0.00 0.00 0.20 93 997.1
20260905014538 53 215 0.0 0.0 0.00 0.00 0.18 93 996.9
20260905013036 53 216 0.0 0.0 0.00 0.00 0.17 93 996.6
20260905011542 54 194 0.0 0.0 0.00 0.00 0.17 92 996.9
20260905010034 54 173 0.0 0.0 0.00 0.00 0.16 92 996.5
20260905004538 54 211 0.0 0.0 0.00 0.00 0.14 92 996.4
20260905003032 55 246 0.0 0.0 0.00 0.00 0.14 92 996.4
20260905001545 55 246 0.0 0.0 0.00 0.00 0.14 92 996.4
20260905000029 55 247 0.0 0.0 0.00 0.00 0.14 92 996.3
20260904234534 55 269 0.0 0.0 0.00 0.00 0.13 92 996.3
20260904233040 55 360 0.0 0.0 0.00 0.00 0.10 92 996.1
20260904231538 55 269 0.0 0.0 0.00 0.00 0.09 92 996.2
20260904230027 55 269 0.0 0.0 0.00 0.00 0.09 92 995.9
20260904224527 55 221 0.0 0.0 0.00 0.00 0.08 92 996.1
20260904223029 55 227 0.0 0.0 0.00 0.00 0.07 92 995.8
20260904221527 55 228 0.0 0.0 0.00 0.00 0.05 92 995.8
20260904220026 55 227 0.0 0.0 0.00 0.00 0.00 91 996.0
20260904214524 55 229 0.0 0.0 0.00 0.00 0.28 91 996.1
20260904213026 54 231 0.0 0.0 0.00 0.00 0.22 91 996.1
20260904211521 53 248 0.0 0.0 0.00 0.00 0.17 90 996.0
20260904210021 53 248 0.0 0.0 0.00 0.00 0.17 90 995.7
20260904204522 53 249 0.0 0.0 0.00 0.00 0.17 89 995.7
20260904203021 53 249 0.0 0.0 0.00 0.00 0.17 89 995.7